Home > Weather > Jessheim > Past weeks

Flag for Norway Past Weather in Jessheim, Norway — Yesterday and Last 2 Weeks

Now
54 °F

Clear.


Feels Like: 52 °F
Forecast: 53 / 61 °F
Wind: 7 mph from Southwest

Location: Oslo Gardermoen Airport

Current Time: Aug 27, 2016 at 5:14:00 AM

Latest Report: Aug 27, 2016 at 4:20 AM


Visibility: 10 mi

Pressure: 29.80 "Hg

Humidity: 82%

Dew Point: 48 °F

Location of JessheimLocation

Past Weather in Jessheim — Graph

°F

Jessheim Temperature Yesterday

Maximum temperature yesterday: 68 °F (at 2:20 PM)
Minimum temperature yesterday: 55 °F (at 11:50 PM)
Average temperature yesterday: 63 °F

High & Low Weather Summary for the Past Weeks

 TemperatureHumidityPressure
High73 °F (Aug 17, 5:50 PM)100% (Aug 12, 9:50 PM)30.24 "Hg (Aug 12, 9:50 PM)
Low39 °F (Aug 12, 4:50 AM)33% (Aug 17, 6:20 PM)29.56 "Hg (Aug 12, 10:50 PM)
Average60 °F73%29.97 "Hg
* Reported Aug 12 3:50 AM — Aug 27 3:50 AM, Jessheim, Weather by CustomWeather, © 2016

Note: Actual official high and low records may vary slightly from our data, if they occured in-between our weather recording intervals... More about our weather records

Advertising

Jessheim Weather History for the Previous 24 Hours

Scroll right to see more
 ConditionsComfort  
Time TempWeatherWind HumidityBarometerVisibility
3:50 AM
Sat, Aug 27
54 °FClear.10 mph82%29.80 "Hg10 mi
3:20 AM54 °FClear.9 mph82%29.80 "Hg10 mi
2:50 AM54 °FClear.8 mph82%29.80 "Hg10 mi
2:20 AM52 °FClear.6 mph82%29.80 "Hg10 mi
1:50 AM52 °FClear.5 mph77%29.77 "Hg10 mi
1:20 AM52 °FClear.5 mph82%29.77 "Hg10 mi
12:50 AM52 °FClear.9 mph77%29.77 "Hg10 mi
12:20 AM52 °FClear.10 mph77%29.77 "Hg10 mi
11:50 PM
Fri, Aug 26
55 °FClear.7 mph67%29.77 "Hg10 mi
11:20 PM57 °FClear.10 mph63%29.74 "Hg10 mi
10:50 PM59 °FClear.9 mph59%29.74 "Hg10 mi
10:20 PM57 °FClear.8 mph72%29.74 "Hg10 mi
9:50 PM59 °FClear.6 mph68%29.71 "Hg10 mi
9:20 PM61 °FSunny.9 mph63%29.71 "Hg10 mi
8:50 PM63 °FSunny.8 mph68%29.71 "Hg10 mi
8:20 PM66 °FPassing clouds.8 mph60%29.68 "HgN/A
7:50 PM66 °FPassing clouds.9 mph78%29.68 "HgN/A
7:20 PM66 °FPassing clouds.12 mph83%29.68 "HgN/A
6:50 PM66 °FBroken clouds.15 mph83%29.65 "HgN/A
6:20 PM66 °FScattered clouds.17 mph83%29.65 "HgN/A
5:50 PM66 °FBroken clouds.12 mph83%29.65 "HgN/A
5:20 PM66 °FPartly sunny.14 mph88%29.65 "Hg6 mi
4:50 PM66 °FRain. Broken clouds.18 mph83%29.65 "HgN/A
4:20 PM66 °FScattered showers. Broken clouds.20 mph83%29.65 "HgN/A
3:50 PM68 °FScattered showers. Broken clouds.22 mph83%29.65 "HgN/A
3:20 PM66 °FBroken clouds.18 mph88%29.65 "HgN/A
2:50 PM68 °FPartly sunny.16 mph83%29.68 "HgN/A
2:20 PM68 °FBroken clouds.13 mph83%29.71 "HgN/A
1:50 PM66 °FBroken clouds.14 mph88%29.74 "HgN/A
1:20 PM66 °FPartly sunny.10 mph88%29.74 "HgN/A
12:50 PM64 °FBroken clouds.9 mph94%29.77 "HgN/A
12:20 PM64 °FPartly sunny.6 mph88%29.77 "HgN/A
11:50 AM64 °FPartly sunny.6 mph88%29.80 "HgN/A
11:20 AM63 °FPartly sunny.6 mph94%29.83 "Hg6 mi
10:50 AM63 °FPartly sunny.5 mph94%29.83 "Hg6 mi
10:20 AM63 °FBroken clouds.3 mph94%29.83 "Hg6 mi
9:50 AM61 °FPartly sunny.2 mph100%29.86 "Hg6 mi
9:20 AM61 °FLight rain. Partly sunny.3 mph100%29.86 "Hg5 mi
8:50 AM61 °FLight rain. Low clouds.5 mph94%29.89 "Hg4 mi
8:20 AM61 °FLight rain. Fog.5 mph94%29.89 "Hg3 mi
7:50 AM61 °FLight rain. Fog.5 mph94%29.92 "Hg3 mi
7:20 AM61 °FRain. Fog.6 mph94%29.92 "Hg3 mi
6:50 AM61 °FHeavy rain. Fog.5 mph94%29.95 "Hg2 mi
6:20 AM61 °FLots of rain. Passing clouds.1 mph94%29.95 "Hg2 mi
5:50 AM61 °FRain. Passing clouds.3 mph94%29.95 "Hg6 mi
5:20 AM61 °FRain. Mostly cloudy.3 mph94%29.95 "Hg4 mi
Weather by CustomWeather, © 2016

See weather overviewHow to use our weather pages